EA8CHC Weather Reports


time (UTC)temp
C
wind
direction
speed
KPH
gust
KPH
rain 1hr
cm
rain 24hr
cm
rain mn
cm
humidity
%
barometer
mb
20260508142705 22 135 9.7 19.3 0.00 0.00 0.00 43 1008.8
20260508142205 22 94 8.0 19.3 0.00 0.00 0.00 42 1008.8
20260508140704 22 208 12.9 24.1 0.00 0.00 0.00 42 1009.0
20260508140205 22 220 9.7 24.1 0.00 0.00 0.00 42 1008.9
20260508135705 22 172 9.7 20.9 0.00 0.00 0.00 43 1009.0
20260508135204 22 219 11.3 19.3 0.00 0.00 0.00 43 1009.2
20260508134705 22 181 9.7 19.3 0.00 0.00 0.00 42 1009.2
20260508134204 22 227 8.0 22.5 0.00 0.00 0.00 43 1009.2
20260508133705 22 150 9.7 22.5 0.00 0.00 0.00 42 1009.3
20260508133205 21 146 11.3 20.9 0.00 0.00 0.00 43 1009.3
20260508132705 21 227 8.0 20.9 0.00 0.00 0.00 43 1009.3
20260508132205 21 232 8.0 20.9 0.00 0.00 0.00 46 1009.2
20260508131705 21 175 9.7 20.9 0.00 0.00 0.00 44 1009.3
20260508131205 21 224 8.0 19.3 0.00 0.00 0.00 44 1009.4
20260508130705 21 203 8.0 14.5 0.00 0.00 0.00 44 1009.4
20260508130205 21 142 8.0 17.7 0.00 0.00 0.00 45 1009.5
20260508125205 21 279 11.3 19.3 0.00 0.00 0.00 46 1009.7
20260508124705 21 291 9.7 19.3 0.00 0.00 0.00 46 1009.8
20260508124205 21 208 9.7 17.7 0.00 0.00 0.00 48 1009.8
20260508123705 21 150 8.0 19.3 0.00 0.00 0.00 46 1009.9
20260508123205 21 223 9.7 20.9 0.00 0.00 0.00 49 1009.9
20260508122705 21 246 11.3 20.9 0.00 0.00 0.00 50 1009.8
20260508121206 20 176 9.7 17.7 0.00 0.00 0.00 51 1010.1
20260508120206 20 238 11.3 17.7 0.00 0.00 0.00 51 1010.2
20260508115705 20 259 8.0 19.3 0.00 0.00 0.00 50 1010.2
20260508115204 20 193 8.0 19.3 0.00 0.00 0.00 52 1010.2
20260508114705 20 184 11.3 19.3 0.00 0.00 0.00 50 1010.3
20260508113705 20 153 8.0 25.7 0.00 0.00 0.00 51 1010.2
20260508113205 20 231 9.7 25.7 0.00 0.00 0.00 50 1010.3
20260508112704 20 198 11.3 25.7 0.00 0.00 0.00 50 1010.2
20260508111705 20 269 8.0 24.1 0.00 0.00 0.00 50 1010.3
20260508111205 20 246 9.7 24.1 0.00 0.00 0.00 50 1010.4
20260508110704 20 226 8.0 14.5 0.00 0.00 0.00 51 1010.5
20260508110206 20 212 6.4 19.3 0.00 0.00 0.00 50 1010.4
20260508105704 20 179 9.7 22.5 0.00 0.00 0.00 49 1010.5
20260508105204 20 229 9.7 22.5 0.00 0.00 0.00 49 1010.6
20260508104704 20 220 8.0 22.5 0.00 0.00 0.00 50 1010.5
20260508104205 19 134 8.0 20.9 0.00 0.00 0.00 52 1010.4
20260508103705 19 211 8.0 20.9 0.00 0.00 0.00 53 1010.6
20260508103205 18 211 8.0 17.7 0.00 0.00 0.00 52 1010.3
20260508102704 18 266 9.7 25.7 0.00 0.00 0.00 51 1010.4
20260508101705 18 216 9.7 17.7 0.00 0.00 0.00 52 1010.4
20260508101205 18 194 9.7 17.7 0.00 0.00 0.00 54 1010.6
20260508100705 18 220 8.0 17.7 0.00 0.00 0.00 54 1010.6
20260508100205 18 205 6.4 16.1 0.00 0.00 0.00 54 1010.5
20260508095705 18 213 8.0 16.1 0.00 0.00 0.00 53 1010.7
20260508095205 18 209 8.0 16.1 0.00 0.00 0.00 53 1010.8
20260508094705 18 227 6.4 17.7 0.00 0.00 0.00 56 1010.7
20260508093705 18 211 8.0 19.3 0.00 0.00 0.00 58 1011.0
20260508092705 18 221 11.3 20.9 0.00 0.00 0.00 56 1011.0
20260508091704 18 223 8.0 20.9 0.00 0.00 0.00 59 1011.0
20260508091206 17 223 9.7 20.9 0.00 0.00 0.00 62 1011.0
20260508090704 17 233 9.7 22.5 0.00 0.00 0.00 62 1011.0
20260508090205 17 226 12.9 22.5 0.00 0.00 0.00 60 1011.0
20260508085705 17 236 11.3 22.5 0.00 0.00 0.00 61 1011.0
20260508085205 17 215 11.3 22.5 0.00 0.00 0.00 63 1011.0
20260508084205 17 225 11.3 22.5 0.00 0.00 0.00 64 1010.8
20260508083705 17 234 11.3 22.5 0.00 0.00 0.00 62 1010.9
20260508083205 17 232 11.3 19.3 0.00 0.00 0.00 65 1010.8
20260508082705 17 229 9.7 19.3 0.00 0.00 0.00 66 1010.8
20260508081205 16 234 8.0 17.7 0.00 0.00 0.00 67 1010.9
20260508080705 16 229 6.4 16.1 0.00 0.00 0.00 70 1010.8
20260508080206 16 232 8.0 16.1 0.00 0.00 0.00 70 1010.8
20260508075204 16 254 8.0 16.1 0.00 0.00 0.00 71 1010.6
20260508074705 16 176 6.4 16.1 0.00 0.00 0.00 72 1010.6
20260508073205 15 188 4.8 9.7 0.00 0.00 0.00 74 1010.4
20260508072705 15 227 4.8 9.7 0.00 0.00 0.00 74 1010.4
20260508071705 15 155 4.8 9.7 0.00 0.00 0.00 76 1010.3
20260508071205 15 219 4.8 9.7 0.00 0.00 0.00 75 1010.2
20260508070205 15 194 4.8 8.0 0.00 0.00 0.00 77 1010.2
20260508065704 15 175 3.2 8.0 0.00 0.00 0.00 78 1010.1
20260508064205 14 190 4.8 9.7 0.00 0.00 0.00 80 1010.0
20260508063704 13 222 4.8 9.7 0.00 0.00 0.00 81 1010.0
20260508062704 13 215 4.8 9.7 0.00 0.00 0.00 82 1010.0
20260508061732 13 232 6.4 9.7 0.00 0.00 0.00 83 1009.9
20260508060704 13 234 6.4 9.7 0.00 0.00 0.00 83 1009.9
20260508060205 13 222 6.4 9.7 0.00 0.00 0.00 83 1009.8
20260508055704 12 229 4.8 9.7 0.00 0.00 0.00 84 1009.9
20260508055204 12 257 4.8 9.7 0.00 0.00 0.00 84 1009.7
20260508054205 12 232 4.8 8.0 0.00 0.00 0.00 85 1009.7
20260508053705 12 227 4.8 8.0 0.00 0.00 0.00 85 1009.7
20260508053205 12 244 4.8 8.0 0.00 0.00 0.00 85 1009.6
20260508052705 12 234 4.8 6.4 0.00 0.00 0.00 85 1009.5
20260508052205 12 242 3.2 6.4 0.00 0.00 0.00 84 1009.4
20260508050705 12 241 3.2 6.4 0.00 0.00 0.00 84 1009.0
20260508050205 12 241 3.2 6.4 0.00 0.00 0.00 84 1009.1
20260508045704 12 241 3.2 6.4 0.00 0.00 0.00 84 1008.9
20260508045204 12 227 3.2 6.4 0.00 0.00 0.00 83 1008.9
20260508044705 12 229 4.8 6.4 0.00 0.00 0.00 83 1008.9
20260508044205 12 232 4.8 8.0 0.00 0.00 0.00 82 1008.9
20260508043705 12 219 4.8 11.3 0.00 0.00 0.00 81 1009.0
20260508043205 13 207 4.8 11.3 0.00 0.00 0.00 80 1008.9
20260508042705 13 207 4.8 11.3 0.00 0.00 0.00 80 1008.9
20260508042205 13 153 6.4 11.3 0.00 0.00 0.00 80 1008.7
20260508041204 13 157 4.8 11.3 0.00 0.00 0.00 80 1008.4
20260508040705 13 154 4.8 11.3 0.00 0.00 0.00 80 1008.5
20260508040205 13 172 4.8 11.3 0.00 0.00 0.00 80 1008.7
20260508035704 13 167 4.8 11.3 0.00 0.00 0.00 80 1008.7
20260508034705 13 179 4.8 11.3 0.00 0.00 0.00 79 1008.8
20260508033704 13 175 4.8 9.7 0.00 0.00 0.00 79 1008.8
20260508033205 13 160 4.8 9.7 0.00 0.00 0.00 79 1008.7
20260508032704 13 129 4.8 9.7 0.00 0.00 0.00 79 1008.7
20260508032205 13 136 4.8 9.7 0.00 0.00 0.00 79 1008.7
20260508031705 13 134 4.8 9.7 0.00 0.00 0.00 78 1008.8
20260508031205 13 130 6.4 16.1 0.00 0.00 0.00 78 1008.8
20260508030705 13 112 6.4 16.1 0.00 0.00 0.00 78 1008.8
20260508030205 13 161 6.4 16.1 0.00 0.00 0.00 78 1008.9
20260508025727 13 165 6.4 11.3 0.00 0.00 0.00 78 1009.0
20260508024205 13 166 4.8 11.3 0.00 0.00 0.00 78 1009.0
20260508023704 13 152 4.8 12.9 0.00 0.00 0.00 78 1009.1
20260508023205 13 135 6.4 12.9 0.00 0.00 0.00 78 1008.9
20260508022705 13 132 6.4 12.9 0.00 0.00 0.00 77 1009.0
20260508022205 13 159 6.4 11.3 0.00 0.00 0.00 77 1009.1
20260508021705 13 172 6.4 12.9 0.00 0.00 0.00 78 1009.1
20260508020705 14 161 6.4 12.9 0.00 0.00 0.00 78 1009.2
20260508020205 14 156 6.4 11.3 0.00 0.00 0.00 78 1009.1
20260508015205 14 153 6.4 11.3 0.00 0.00 0.00 78 1009.2
20260508014704 14 135 6.4 11.3 0.00 0.00 0.00 78 1009.2
20260508014205 14 138 6.4 11.3 0.00 0.00 0.00 78 1009.2
20260508013705 13 153 4.8 11.3 0.00 0.00 0.00 78 1009.2
20260508013205 13 158 4.8 11.3 0.00 0.00 0.00 78 1009.4
20260508012705 13 166 4.8 9.7 0.00 0.00 0.00 79 1009.4
20260508012204 13 172 4.8 8.0 0.00 0.00 0.00 79 1009.4
20260508011704 13 182 4.8 8.0 0.00 0.00 0.00 79 1009.4
20260508011205 13 168 4.8 8.0 0.00 0.00 0.00 79 1009.4
20260508010704 13 208 4.8 8.0 0.00 0.00 0.00 79 1009.4
20260508010205 13 191 4.8 8.0 0.00 0.00 0.00 79 1009.4
20260508005205 13 193 4.8 8.0 0.00 0.00 0.00 79 1009.4
20260508004705 13 180 3.2 8.0 0.00 0.00 0.00 79 1009.5
20260508004205 13 182 3.2 8.0 0.00 0.00 0.00 79 1009.7
20260508003204 13 190 4.8 9.7 0.00 0.00 0.00 78 1009.7
20260508002705 14 189 4.8 9.7 0.00 0.00 0.00 78 1009.8
20260508002204 14 186 4.8 9.7 0.00 0.00 0.00 78 1009.7
20260508001705 14 177 4.8 11.3 0.00 0.00 0.00 77 1009.6
20260508000705 14 154 4.8 11.3 0.00 0.00 0.00 78 1009.6
20260508000205 14 188 3.2 8.0 0.00 0.00 0.00 78 1009.7
20260507235705 13 170 3.2 8.0 0.00 0.00 0.00 78 1009.6
20260507235204 13 181 3.2 8.0 0.00 0.00 0.00 78 1009.6
20260507234705 13 190 4.8 11.3 0.00 0.00 0.00 78 1009.7
20260507234205 14 192 4.8 11.3 0.00 0.00 0.00 77 1009.8
20260507233205 14 182 6.4 9.7 0.00 0.00 0.00 76 1009.9
20260507232704 14 191 4.8 9.7 0.00 0.00 0.00 76 1009.9
20260507232205 14 196 4.8 9.7 0.00 0.00 0.00 76 1009.8
20260507231705 14 182 4.8 9.7 0.00 0.00 0.00 76 1009.8
20260507231205 14 187 4.8 9.7 0.00 0.00 0.00 76 1009.8
20260507230704 14 178 6.4 12.9 0.00 0.00 0.00 76 1009.8
20260507230224 15 182 6.4 12.9 0.00 0.00 0.00 76 1010.1
20260507225705 15 167 6.4 12.9 0.00 0.00 0.00 76 1010.1
20260507224705 14 165 4.8 9.7 0.00 0.00 0.00 77 1010.0
20260507223705 14 186 4.8 9.7 0.00 0.00 0.00 77 1010.2
20260507223205 14 187 4.8 9.7 0.00 0.00 0.00 77 1010.2
20260507222704 14 205 4.8 9.7 0.00 0.00 0.00 77 1010.3
20260507222205 14 186 4.8 9.7 0.00 0.00 0.00 76 1010.4
20260507221206 14 174 6.4 9.7 0.00 0.00 0.00 76 1010.4
20260507220704 14 175 4.8 8.0 0.00 0.00 0.00 76 1010.4
20260507220206 14 180 4.8 6.4 0.00 0.00 0.00 75 1010.3
20260507215704 14 184 4.8 6.4 0.00 0.00 0.00 74 1010.3
20260507215205 14 180 4.8 6.4 0.00 0.00 0.00 73 1010.4
20260507214705 15 219 4.8 4.8 0.00 0.00 0.00 72 1010.3
20260507213704 15 235 3.2 6.4 0.00 0.00 0.00 72 1010.2
20260507213204 15 235 3.2 6.4 0.00 0.00 0.00 72 1010.3
20260507212704 15 235 4.8 8.0 0.00 0.00 0.00 72 1010.4
20260507212205 15 244 4.8 8.0 0.00 0.00 0.00 71 1010.4
20260507211705 15 237 4.8 8.0 0.00 0.00 0.00 71 1010.4
20260507211205 15 235 4.8 8.0 0.00 0.00 0.00 70 1010.2
20260507210205 15 250 4.8 11.3 0.00 0.00 0.00 69 1010.1
20260507204705 15 252 6.4 9.7 0.00 0.00 0.00 68 1009.8
20260507203705 15 260 6.4 11.3 0.00 0.00 0.00 68 1009.9
20260507203205 15 269 6.4 11.3 0.00 0.00 0.00 67 1009.9
20260507202705 15 269 4.8 8.0 0.00 0.00 0.00 67 1009.8
20260507202205 15 275 4.8 9.7 0.00 0.00 0.00 67 1009.8
20260507201705 15 280 4.8 12.9 0.00 0.00 0.00 66 1009.8
20260507200205 15 268 6.4 11.3 0.00 0.00 0.00 66 1009.8
20260507195205 16 250 6.4 12.9 0.00 0.00 0.00 66 1009.9
20260507194705 16 248 6.4 12.9 0.00 0.00 0.00 66 1009.8
20260507194205 16 273 6.4 14.5 0.00 0.00 0.00 66 1009.9
20260507193705 16 242 8.0 14.5 0.00 0.00 0.00 66 1009.8
20260507193205 16 246 8.0 14.5 0.00 0.00 0.00 66 1009.7
20260507192704 16 267 8.0 16.1 0.00 0.00 0.00 66 1009.6
20260507192205 16 247 9.7 19.3 0.00 0.00 0.00 66 1009.6
20260507191704 16 230 9.7 19.3 0.00 0.00 0.00 66 1009.6
20260507191205 16 228 9.7 16.1 0.00 0.00 0.00 65 1009.6
20260507190705 16 254 8.0 20.9 0.00 0.00 0.00 64 1009.6
20260507190226 17 256 9.7 22.5 0.00 0.00 0.00 63 1009.6
20260507185705 17 250 11.3 24.1 0.00 0.00 0.00 61 1009.2
20260507185204 17 223 12.9 25.7 0.00 0.00 0.00 60 1009.3
20260507184704 17 240 12.9 25.7 0.00 0.00 0.00 61 1009.3
20260507184204 17 239 14.5 25.7 0.00 0.00 0.00 60 1009.2
20260507183705 18 236 12.9 25.7 0.00 0.00 0.00 59 1009.1
20260507183205 18 244 14.5 25.7 0.00 0.00 0.00 57 1009.0
20260507182704 18 268 16.1 25.7 0.00 0.00 0.00 56 1009.0
20260507182205 18 238 16.1 25.7 0.00 0.00 0.00 56 1008.9
20260507181704 18 249 14.5 25.7 0.00 0.00 0.00 55 1008.9
20260507181205 18 227 14.5 24.1 0.00 0.00 0.00 54 1008.9
20260507180705 18 231 14.5 24.1 0.00 0.00 0.00 54 1008.8
20260507180205 18 236 14.5 27.4 0.00 0.00 0.00 53 1008.9
20260507175704 19 226 16.1 27.4 0.00 0.00 0.00 53 1008.8
20260507175205 19 224 14.5 27.4 0.00 0.00 0.00 54 1008.7
20260507174704 19 197 12.9 25.7 0.00 0.00 0.00 53 1008.7
20260507174205 20 230 14.5 25.7 0.00 0.00 0.00 52 1008.6
20260507173704 20 243 16.1 24.1 0.00 0.00 0.00 52 1008.6
20260507172705 20 237 14.5 25.7 0.00 0.00 0.00 53 1008.5
20260507172204 20 225 14.5 25.7 0.00 0.00 0.00 53 1008.5
20260507171705 20 223 14.5 25.7 0.00 0.00 0.00 51 1008.4
20260507171204 20 245 14.5 27.4 0.00 0.00 0.00 52 1008.3
20260507170705 20 214 14.5 27.4 0.00 0.00 0.00 50 1008.3
20260507170206 20 241 12.9 24.1 0.00 0.00 0.00 50 1008.2
20260507165704 20 238 14.5 24.1 0.00 0.00 0.00 50 1008.1
20260507165204 20 274 14.5 32.2 0.00 0.00 0.00 49 1008.1
20260507164705 21 258 14.5 32.2 0.00 0.00 0.00 48 1008.2
20260507164204 21 219 14.5 25.7 0.00 0.00 0.00 48 1008.1
20260507163704 21 207 14.5 25.7 0.00 0.00 0.00 47 1008.1
20260507163205 21 253 14.5 25.7 0.00 0.00 0.00 47 1008.2
20260507162705 21 227 14.5 27.4 0.00 0.00 0.00 46 1008.2
20260507162204 21 223 14.5 27.4 0.00 0.00 0.00 48 1008.1
20260507161704 21 206 14.5 25.7 0.00 0.00 0.00 48 1008.1
20260507161205 21 207 16.1 27.4 0.00 0.00 0.00 47 1008.0
20260507160705 21 244 14.5 29.0 0.00 0.00 0.00 45 1008.0
20260507160205 21 279 16.1 29.0 0.00 0.00 0.00 45 1008.0
20260507155705 21 229 16.1 25.7 0.00 0.00 0.00 46 1007.8
20260507155204 21 225 14.5 25.7 0.00 0.00 0.00 46 1007.9
20260507154704 22 226 14.5 25.7 0.00 0.00 0.00 46 1008.1
20260507154204 22 202 12.9 25.7 0.00 0.00 0.00 45 1008.0
20260507153705 22 253 11.3 22.5 0.00 0.00 0.00 42 1008.0
20260507152705 22 260 12.9 27.4 0.00 0.00 0.00 42 1008.0
20260507152205 22 230 12.9 27.4 0.00 0.00 0.00 41 1008.0
20260507151205 22 225 9.7 20.9 0.00 0.00 0.00 45 1008.1
20260507150704 22 252 11.3 24.1 0.00 0.00 0.00 43 1008.1
20260507150205 21 186 12.9 24.1 0.00 0.00 0.00 45 1008.1
20260507145705 21 240 12.9 24.1 0.00 0.00 0.00 46 1008.2
20260507145205 22 213 11.3 22.5 0.00 0.00 0.00 47 1008.2
20260507144704 22 250 12.9 25.7 0.00 0.00 0.00 45 1008.2
20260507144205 21 233 14.5 25.7 0.00 0.00 0.00 44 1008.2
20260507143705 22 250 14.5 25.7 0.00 0.00 0.00 44 1008.2
20260507143205 21 189 12.9 25.7 0.00 0.00 0.00 47 1008.4